CT1ETE Weather Reports


time (UTC)temp
C
wind
direction
speed
KPH
gust
KPH
rain 1hr
cm
rain 24hr
cm
rain mn
cm
humidity
%
barometer
mb
20260831065706 13 236 0.0 3.2 0.03 0.05 0.03 62 1021.6
20260831064206 13 236 0.0 3.2 0.03 0.05 0.03 62 1021.6
20260831064108 13 236 3.2 4.8 0.03 0.05 0.03 62 1021.4
20260831061206 13 236 0.0 3.2 0.00 0.03 0.00 63 1021.4
20260831055704 13 236 0.0 3.2 0.00 0.03 0.00 64 1021.3
20260831054854 13 236 0.0 3.2 0.00 0.03 0.00 63 1021.3
20260831052703 13 236 1.6 3.2 0.00 0.03 0.00 64 1021.3
20260831051204 13 236 1.6 4.8 0.00 0.05 0.00 64 1021.2
20260831045704 14 236 1.6 3.2 0.00 0.05 0.00 64 1021.2
20260831044204 14 236 0.0 1.6 0.00 0.05 0.00 64 1021.2
20260831042702 14 236 0.0 1.6 0.00 0.05 0.00 64 1021.2
20260831041200 14 236 0.0 3.2 0.00 0.05 0.00 65 1021.1
20260831035658 14 236 3.2 3.2 0.00 0.05 0.00 67 1021.2
20260831034157 14 236 0.0 0.0 0.00 0.08 0.00 66 1021.2
20260831032655 14 236 0.0 0.0 0.00 0.08 0.00 69 1021.2
20260831031156 14 236 0.0 3.2 0.00 0.13 0.00 67 1021.3
20260831025656 14 236 0.0 3.2 0.00 0.13 0.00 68 1021.2
20260831025601 14 236 1.6 3.2 0.00 0.13 0.00 70 1021.2
20260831022655 15 236 0.0 0.0 0.00 0.15 0.00 70 1021.3
20260831021156 15 236 0.0 3.2 0.00 0.15 0.00 71 1021.2
20260831015655 15 236 0.0 4.8 0.00 0.15 0.00 73 1021.2
20260831014155 15 236 0.0 4.8 0.00 0.15 0.00 72 1021.1
20260831012656 15 236 1.6 3.2 0.00 0.15 0.00 70 1021.2
20260831011156 15 236 1.6 3.2 0.00 0.15 0.00 72 1021.3
20260831005653 15 236 1.6 3.2 0.00 0.18 0.00 74 1021.4
20260831004153 15 236 0.0 3.2 0.00 0.20 0.00 77 1021.6
20260831002652 15 236 0.0 3.2 0.00 0.20 0.00 79 1021.7
20260831001152 15 236 0.0 3.2 0.00 0.20 0.00 80 1021.8
20260830235650 15 236 0.0 1.6 0.00 0.20 0.00 80 1021.8
20260830234147 16 236 3.2 4.8 0.00 0.20 0.00 80 1021.9
20260830232647 16 236 3.2 4.8 0.00 0.20 0.00 81 1021.9
20260830231146 16 236 0.0 3.2 0.00 0.20 0.00 81 1022.0
20260830225645 16 236 0.0 0.0 0.00 0.20 0.20 82 1022.1
20260830224146 16 236 0.0 3.2 0.00 0.20 0.20 82 1022.1
20260830222644 16 236 1.6 3.2 0.00 0.23 0.20 83 1022.0
20260830221740 16 236 4.8 6.4 0.00 0.23 0.20 83 1022.0
20260830221153 16 236 1.6 4.8 0.00 0.23 0.20 83 1022.0
20260830214142 16 236 3.2 6.4 0.00 0.23 0.20 83 1022.0
20260830212640 16 236 1.6 4.8 0.00 0.23 0.20 84 1021.9
20260830211136 16 236 1.6 6.4 0.00 0.23 0.20 83 1021.8
20260830205636 17 236 3.2 11.3 0.00 0.23 0.20 84 1021.7
20260830204135 17 234 6.4 12.9 0.00 0.23 0.20 84 1021.4
20260830204032 17 227 9.7 14.5 0.00 0.23 0.20 83 1021.3
20260830201833 17 238 9.7 16.1 0.00 0.23 0.20 83 1021.2
20260830195633 18 213 8.0 16.1 0.00 0.23 0.20 81 1021.0
20260830194140 18 238 9.7 17.7 0.00 0.23 0.20 80 1020.9
20260830193323 18 236 12.9 19.3 0.00 0.23 0.20 78 1020.7
20260830191133 19 246 12.9 19.3 0.00 0.23 0.20 76 1020.4
20260830185633 20 232 11.3 20.9 0.00 0.23 0.20 73 1020.4
20260830184831 21 254 9.7 16.1 0.00 0.23 0.20 69 1020.3
20260830182633 21 236 9.7 17.7 0.00 0.23 0.20 67 1020.4
20260830181134 22 271 8.0 16.1 0.00 0.23 0.20 66 1020.3
20260830175633 22 281 8.0 17.7 0.00 0.23 0.20 64 1020.4
20260830174133 22 266 9.7 19.3 0.00 0.23 0.20 64 1020.4
20260830172633 23 281 8.0 19.3 0.00 0.23 0.20 62 1020.4
20260830171835 23 271 11.3 22.5 0.00 0.23 0.20 61 1020.3
20260830165633 23 275 12.9 24.1 0.00 0.23 0.20 59 1020.3
20260830164133 23 289 11.3 20.9 0.00 0.23 0.20 60 1020.2
20260830162633 23 285 12.9 25.7 0.00 0.23 0.20 60 1020.3
20260830161133 23 274 11.3 19.3 0.00 0.23 0.20 60 1020.1
20260830155631 23 273 9.7 19.3 0.00 0.23 0.20 60 1020.2
20260830154131 23 243 11.3 19.3 0.00 0.23 0.20 59 1020.2
20260830153329 24 294 14.5 20.9 0.00 0.23 0.20 58 1020.2
20260830151131 24 244 8.0 20.9 0.00 0.23 0.20 59 1020.2
20260830145631 23 259 11.3 22.5 0.00 0.23 0.20 58 1020.3
20260830144130 24 277 11.3 22.5 0.00 0.23 0.20 56 1020.4
20260830142631 24 228 11.3 24.1 0.00 0.23 0.20 56 1020.4
20260830141129 23 234 8.0 20.9 0.03 0.23 0.20 55 1020.4
20260830135629 23 259 8.0 24.1 0.03 0.23 0.20 55 1020.5
20260830134128 23 232 9.7 20.9 0.03 0.23 0.20 59 1020.6
20260830133310 22 236 11.3 20.9 0.03 0.23 0.20 58 1020.7
20260830131823 22 246 11.3 22.5 0.00 0.23 0.18 61 1020.6
20260830130324 22 269 8.0 19.3 0.00 0.23 0.18 63 1020.7
20260830124121 23 240 8.0 24.1 0.00 0.23 0.18 61 1020.8
20260830122620 23 218 11.3 19.3 0.00 0.23 0.18 64 1020.8
20260830121121 22 229 11.3 19.3 0.00 0.23 0.18 64 1020.9
20260830115620 22 238 14.5 20.9 0.00 0.23 0.18 67 1021.0
20260830114120 21 240 6.4 16.1 0.00 0.23 0.18 69 1021.0
20260830112620 21 264 11.3 20.9 0.00 0.23 0.18 71 1021.2
20260830111119 21 294 11.3 20.9 0.00 0.23 0.18 70 1021.2
20260830105619 21 232 8.0 17.7 0.00 0.23 0.18 69 1021.2
20260830104118 21 301 8.0 19.3 0.00 0.23 0.18 72 1021.1
20260830102618 20 222 8.0 16.1 0.00 0.23 0.18 76 1021.0
20260830101117 21 234 6.4 16.1 0.00 0.23 0.18 77 1021.0
20260830095613 20 236 9.7 17.7 0.00 0.23 0.18 80 1020.9
20260830094112 20 228 4.8 9.7 0.00 0.23 0.18 82 1020.8
20260830092612 18 225 3.2 9.7 0.00 0.23 0.18 83 1020.7
20260830091113 18 211 3.2 8.0 0.00 0.23 0.18 76 1020.6
20260830091009 18 246 6.4 11.3 0.00 0.23 0.18 68 1020.6
20260830084110 18 256 4.8 11.3 0.00 0.23 0.18 59 1020.4
20260830082605 18 242 4.8 8.0 0.00 0.23 0.18 54 1020.2
20260830081102 17 241 3.2 6.4 0.00 0.23 0.18 55 1020.2
20260830080305 17 228 1.6 6.4 0.00 0.23 0.18 54 1020.0
20260830074101 17 228 3.2 6.4 0.00 0.23 0.18 54 1019.9
20260830072602 17 228 3.2 11.3 0.00 0.23 0.18 55 1019.9
20260830071102 17 239 4.8 14.5 0.00 0.23 0.18 55 1019.8